Regional Weather Roundup
Issued by NWS

Home | Current Version | Previous Version | Text Only | Print | Product List | Glossary Off
Versions: 1 2 3 4 5 6 7 8 9 10 11 12 13 14 15 16 17 18 19 20 21 22 23 24 25 26 27 28 29 30 31 32 33 34 35 36 37 38 39 40 41 42 43 44 45 46 47 48 49

000
ASUS45 KBOU 300807
RWRCO

WEATHER ROUNDUP FOR COLORADO
NATIONAL WEATHER SERVICE DENVER/BOULDER CO
200 AM MDT TUE SEP 30 2014

NOTE: "FAIR" INDICATES FEW OR NO CLOUDS BELOW 12000 FEET WITH NO
SIGNIFICANT WEATHER AND/OR OBSTRUCTIONS TO VISIBILITY.

COZ001>005-013-030-031-300900-
...NORTHWEST COLORADO...

CITY           SKY/WX    TMP DP  RH WIND       PRES   REMARKS
CRAIG          CLOUDY    46  38  73 W7        30.02F
HAYDEN         CLOUDY    45  36  70 W7        30.03S
MEEKER         NOT AVBL
MOUNT WERNER   NOT AVBL
STEAMBOAT SPGS CLOUDY    41  39  93 CALM      30.03S
WALDEN         CLOUDY    36  32  87 SW10      30.00S
$$

COZ006>008-011-300900-
...WEST CENTRAL VALLEYS...

CITY           SKY/WX    TMP DP  RH WIND       PRES   REMARKS
GRAND JUNCTION PTCLDY    45  42  89 E9        30.04F
MONTROSE       MOCLDY    42  41  96 SE5       30.11F
EAGLE          CLOUDY    43  41  93 W6        30.09S
RIFLE          CLOUDY    47  43  86 SE3       30.06F
DELTA          LGT SNOW  45  44  97 NW3       30.09F
NUCLA          CLOUDY    43  41  93 SE7       30.13S
$$

COZ017>023-064>068-300900-
...SOUTHWEST COLORADO...

CITY           SKY/WX    TMP DP  RH WIND       PRES   REMARKS
DURANGO        CLEAR     41  37  86 NE5       30.11S
CORTEZ         CLOUDY    45  41  86 NE7       30.08F
PAGOSA SPRINGS MOCLDY    38  38 100 CALM      30.14S FOG
TELLURIDE      PTCLDY   N/A N/A N/A CALM      30.19
WOLF CREEK PAS FOG       27  27 100 SW8       30.24S VSB 1/2 WCI  18
$$

COZ009-010-012-014-032>034-037-058>063-300900-
...CENTRAL COLORADO...

CITY           SKY/WX    TMP DP  RH WIND       PRES   REMARKS
ASPEN          CLOUDY    38  36  92 CALM      30.09F
BUENA VISTA    MOCLDY    44  29  55 SW14G20   30.04R
COPPER MTN     LGT SNOW  30  27  86 W18G25    30.15S WCI  18
BERTHOUD PASS  CLOUDY    23  19  86 NW40G54   30.07R WCI   3
COTTONWOOD PAS MOCLDY    41  27  56 W21G35    30.07F
GUNNISON       MOCLDY    37  34  87 CALM      30.13F
KREMMLING      CLOUDY    41  34  75 W12G18    30.06S
LEADVILLE      CLOUDY    35  26  69 NW10G17   30.10F WCI  27
MONARCH PASS   CLOUDY    28  27  93 MISG      30.26S
SALIDA         MOCLDY    47  31  52 W22G30    30.10R
SUNLIGHT       CLOUDY    34  32  93 SW3       30.17F FOG
WILKERSON PASS NOT AVBL
$$

COZ069>075-300900-
...SAN LUIS VALLEY/SANGRE DE CRISTO MOUNTAINS...

CITY           SKY/WX    TMP DP  RH WIND       PRES   REMARKS
ALAMOSA        PTCLDY    38  34  85 E3        30.09R
LA VETA PASS   PTCLDY    34  30  86 S10G25    30.11F WCI  26
SAGUACHE       PTCLDY    37  32  81 W8        30.11R
$$

COZ035-036-038>040-300900-
...NORTHERN COLORADO FRONT RANGE...

CITY           SKY/WX    TMP DP  RH WIND       PRES   REMARKS
DENVER INTL AP MOCLDY    46  43  89 S12       29.85F
DMNS CITY PARK   N/A     47  44  92 SW13      29.85S
AURORA         MOCLDY    44  44 100 S10       29.87F
FRONT RANGE AP MOCLDY    46  45  93 S7        29.86F
ERIE MUNI ARPT PTCLDY    48  45  88 S9        29.83F
BOULDER MUN AP PTCLDY    46  46 100 NE3       29.82F
CENTENNIAL     PTCLDY    44  42  93 S13       29.88F
BROOMFIELD     PTCLDY    46  45  93 S18       29.85F
FORT COLLINS   MOCLDY    46  43  87 S7        29.83S
LONGMONT       MOCLDY    48  46  90 SE6       29.83F
$$

COZ041-046-047-076>085-087-088-300900-
...PIKES PEAK/PALMER DIVIDE AND SOUTHERN FOOTHILLS...

CITY           SKY/WX    TMP DP  RH WIND       PRES   REMARKS
COLO. SPRINGS  MOCLDY    47  37  68 NE7       29.92R
A. F. ACADEMY  MOCLDY    45  36  69 SE6       29.92R
ELLICOTT       NOT AVBL
FALCON         MOCLDY    42  32  68 S5        29.94S
FORT CARSON    MOCLDY    42  39  88 NE7       29.88F
LIMON          PTCLDY    43  41  93 CALM      29.90F
MONUMENT HILL  PTCLDY    36  34  93 S3        29.91F
TRINIDAD       PTCLDY    55  28  35 W7        29.96S
$$

COZ042>045-048>051-090-091-300900-
...NORTHEAST COLORADO...

CITY           SKY/WX    TMP DP  RH WIND       PRES   REMARKS
GREELEY ARPT   PTCLDY    46  39  76 SW7       29.83S
AKRON          PTCLDY    47  46  97 SW8       29.83S
BURLINGTON     PTCLDY    50  44  80 W7        29.88F
WRAY           PTCLDY    53  49  87 W15G21    29.82R
STERLING       CLOUDY    52  50  93 W3        29.78S
HOLYOKE        PTCLDY    54  48  82 W18       29.78R
FORT MORGAN    PTCLDY    46  44  90 SW6       29.83R
$$

COZ086-089-092>099-300900-
...SOUTHEAST COLORADO...

CITY           SKY/WX    TMP DP  RH WIND       PRES   REMARKS
PUEBLO         MOCLDY    51  42  71 VRB3      29.88F
LA JUNTA       PTCLDY    53  43  68 MISG      29.90R
LAMAR          CLEAR     54  49  83 N6        29.89R
SPRINGFIELD      N/A     52  51  97 CALM      29.92R
$$



USA.gov is the U.S. government's official web portal to all federal, state and local government web resources and services.